• In Czech Republic
  • List of Countries
  • For 7 days
  • Water Temperature
  • Satellite Maps
  • Weather Map
  • Weather Widgets
  • user-avatar
    Login

    Hourly Weather Moung

    Today, 24 October, Tuesday

    Time Temperature Precipitation Wind Pressure Humidity
    00:00 +28°C° 0.2 mm 1 mps 758 mmHg 89%
    01:00 +27°C° 0 mm 1 mps 758 mmHg 90%
    02:00 +27°C° 0.2 mm 1 mps 758 mmHg 90%
    03:00 +27°C° 0.2 mm 1 mps 758 mmHg 89%
    04:00 +27°C° 0.2 mm 1 mps 758 mmHg 89%
    05:00 +27°C° 0.1 mm 1 mps 758 mmHg 88%
    06:00 +27°C° 0.1 mm 1 mps 758 mmHg 86%
    07:00 +28°C° 0 mm 1 mps 759 mmHg 84%
    08:00 +29°C° 0.2 mm 1 mps 759 mmHg 78%
    09:00 +30°C° 0.2 mm 2 mps 759 mmHg 73%
    10:00 +32°C° 0.2 mm 2 mps 759 mmHg 68%
    11:00 +32°C° 0.3 mm 2 mps 758 mmHg 65%
    12:00 +34°C° 0.3 mm 2 mps 758 mmHg 62%
    13:00 +35°C° 0.3 mm 2 mps 757 mmHg 59%
    14:00 +35°C° 0.3 mm 2 mps 757 mmHg 59%
    15:00 +35°C° 0.3 mm 2 mps 757 mmHg 59%
    16:00 +35°C° 0.3 mm 2 mps 756 mmHg 59%
    17:00 +32°C° 0.5 mm 2 mps 757 mmHg 64%
    18:00 +31°C° 0.5 mm 2 mps 757 mmHg 70%
    19:00 +30°C° 0.5 mm 2 mps 757 mmHg 75%
    20:00 +29°C° 0.5 mm 2 mps 758 mmHg 78%
    21:00 +29°C° 0.5 mm 2 mps 759 mmHg 81%
    22:00 +28°C° 0.5 mm 2 mps 759 mmHg 83%
    23:00 +28°C° 0.3 mm 2 mps 759 mmHg 85%

    Tomorrow, 25 October, Wednesday

    Time Temperature Precipitation Wind Pressure Humidity
    00:00 +28°C° 0.3 mm 2 mps 759 mmHg 86%
    01:00 +27°C° 0.3 mm 1 mps 759 mmHg 87%
    02:00 +27°C° 0 mm 1 mps 758 mmHg 88%
    03:00 +27°C° 0 mm 1 mps 758 mmHg 88%
    04:00 +27°C° 0 mm 1 mps 758 mmHg 89%
    05:00 +27°C° 0 mm 1 mps 758 mmHg 87%
    06:00 +27°C° 0 mm 1 mps 759 mmHg 86%
    07:00 +28°C° 0 mm 1 mps 759 mmHg 85%
    08:00 +29°C° 0 mm 1 mps 759 mmHg 78%
    09:00 +31°C° 0 mm 1 mps 759 mmHg 72%
    10:00 +32°C° 0 mm 2 mps 760 mmHg 65%
    11:00 +34°C° 0 mm 2 mps 759 mmHg 63%
    12:00 +34°C° 0 mm 3 mps 758 mmHg 61%
    13:00 +35°C° 0 mm 3 mps 758 mmHg 59%
    14:00 +35°C° 0.1 mm 3 mps 757 mmHg 60%
    15:00 +34°C° 0.1 mm 3 mps 757 mmHg 61%
    16:00 +34°C° 0.1 mm 2 mps 756 mmHg 62%
    17:00 +32°C° 0.5 mm 2 mps 757 mmHg 67%
    18:00 +31°C° 0.5 mm 2 mps 757 mmHg 73%
    19:00 +29°C° 0.5 mm 3 mps 758 mmHg 78%
    20:00 +29°C° 0.2 mm 2 mps 758 mmHg 79%
    21:00 +29°C° 0.2 mm 2 mps 759 mmHg 81%
    22:00 +28°C° 0.2 mm 2 mps 759 mmHg 83%
    23:00 +28°C° 0 mm 2 mps 759 mmHg 84%

    Day after tomorrow, 26 October, Thursday

    Time Temperature Precipitation Wind Pressure Humidity
    00:00 +28°C° 0 mm 2 mps 758 mmHg 85%
    01:00 +27°C° 0 mm 2 mps 758 mmHg 87%
    02:00 +27°C° 0.1 mm 2 mps 758 mmHg 87%
    03:00 +27°C° 0.1 mm 2 mps 757 mmHg 88%
    04:00 +26°C° 0.1 mm 2 mps 757 mmHg 89%
    05:00 +27°C° 0 mm 3 mps 758 mmHg 87%
    06:00 +27°C° 0 mm 3 mps 758 mmHg 86%
    07:00 +27°C° 0 mm 3 mps 759 mmHg 84%
    08:00 +29°C° 0 mm 4 mps 759 mmHg 76%
    09:00 +32°C° 0 mm 4 mps 759 mmHg 69%
    10:00 +33°C° 0 mm 5 mps 759 mmHg 61%
    11:00 +34°C° 0 mm 5 mps 758 mmHg 58%
    12:00 +35°C° 0 mm 5 mps 757 mmHg 55%
    13:00 +36°C° 0 mm 5 mps 756 mmHg 53%
    14:00 +36°C° 0 mm 4 mps 756 mmHg 53%
    15:00 +35°C° 0 mm 4 mps 755 mmHg 54%
    16:00 +35°C° 0 mm 3 mps 755 mmHg 55%
    17:00 +34°C° 0.2 mm 3 mps 755 mmHg 60%
    18:00 +33°C° 0.2 mm 3 mps 756 mmHg 65%
    19:00 +30°C° 0.2 mm 3 mps 756 mmHg 71%
    20:00 +30°C° 0.6 mm 2 mps 757 mmHg 74%
    21:00 +29°C° 0.6 mm 2 mps 757 mmHg 77%
    22:00 +29°C° 0.6 mm 1 mps 758 mmHg 81%
    23:00 +29°C° 0.5 mm 2 mps 757 mmHg 81%

    27 October, Friday

    Time Temperature Precipitation Wind Pressure Humidity
    00:00 +28°C° 0.5 mm 2 mps 757 mmHg 82%
    01:00 +28°C° 0.5 mm 2 mps 757 mmHg 83%
    02:00 +28°C° 0.3 mm 2 mps 757 mmHg 84%
    03:00 +27°C° 0.3 mm 2 mps 756 mmHg 85%
    04:00 +27°C° 0.3 mm 2 mps 756 mmHg 86%
    05:00 +27°C° 0 mm 3 mps 756 mmHg 86%
    06:00 +27°C° 0 mm 3 mps 757 mmHg 85%
    07:00 +27°C° 0 mm 3 mps 757 mmHg 84%
    08:00 +29°C° 0 mm 3 mps 758 mmHg 78%
    09:00 +30°C° 0 mm 4 mps 758 mmHg 72%
    10:00 +32°C° 0 mm 4 mps 758 mmHg 66%
    11:00 +33°C° 0 mm 4 mps 757 mmHg 61%
    12:00 +34°C° 0 mm 4 mps 756 mmHg 57%
    13:00 +35°C° 0 mm 4 mps 755 mmHg 53%
    14:00 +35°C° 0 mm 4 mps 755 mmHg 53%
    15:00 +35°C° 0 mm 3 mps 754 mmHg 53%
    16:00 +35°C° 0 mm 3 mps 754 mmHg 53%
    17:00 +34°C° 0 mm 2 mps 755 mmHg 58%
    18:00 +32°C° 0 mm 2 mps 755 mmHg 62%
    19:00 +30°C° 0 mm 1 mps 756 mmHg 67%
    20:00 +30°C° 0.3 mm 1 mps 756 mmHg 71%
    21:00 +29°C° 0.3 mm 1 mps 757 mmHg 74%
    22:00 +29°C° 0.3 mm 1 mps 757 mmHg 78%
    23:00 +29°C° 0.4 mm 1 mps 757 mmHg 79%

    28 October, Saturday

    Time Temperature Precipitation Wind Pressure Humidity
    00:00 +28°C° 0.4 mm 1 mps 756 mmHg 81%
    01:00 +28°C° 0.4 mm 1 mps 756 mmHg 82%
    02:00 +28°C° 0.4 mm 1 mps 756 mmHg 83%
    03:00 +27°C° 0.4 mm 1 mps 756 mmHg 84%
    04:00 +27°C° 0.4 mm 1 mps 756 mmHg 85%
    05:00 +27°C° 0 mm 2 mps 756 mmHg 86%
    06:00 +27°C° 0 mm 2 mps 757 mmHg 86%
    07:00 +27°C° 0 mm 2 mps 758 mmHg 86%
    08:00 +29°C° 0 mm 3 mps 758 mmHg 79%
    09:00 +31°C° 0 mm 3 mps 758 mmHg 73%
    10:00 +33°C° 0 mm 4 mps 758 mmHg 66%
    11:00 +34°C° 0 mm 4 mps 757 mmHg 61%
    12:00 +35°C° 0 mm 4 mps 756 mmHg 56%
    13:00 +36°C° 0 mm 5 mps 755 mmHg 51%
    14:00 +36°C° 0 mm 4 mps 755 mmHg 52%
    15:00 +35°C° 0 mm 4 mps 755 mmHg 53%
    16:00 +35°C° 0 mm 4 mps 755 mmHg 54%
    17:00 +34°C° 0 mm 3 mps 755 mmHg 58%
    18:00 +32°C° 0 mm 2 mps 756 mmHg 62%
    19:00 +31°C° 0 mm 2 mps 756 mmHg 66%
    20:00 +30°C° 0 mm 2 mps 757 mmHg 69%
    21:00 +30°C° 0 mm 2 mps 757 mmHg 71%
    22:00 +29°C° 0 mm 2 mps 758 mmHg 74%
    23:00 +29°C° 0.1 mm 2 mps 757 mmHg 76%

    29 October, Sunday

    Time Temperature Precipitation Wind Pressure Humidity
    00:00 +28°C° 0.1 mm 2 mps 757 mmHg 78%
    01:00 +28°C° 0.1 mm 2 mps 757 mmHg 80%
    02:00 +28°C° 0.4 mm 2 mps 757 mmHg 82%
    03:00 +27°C° 0.4 mm 2 mps 757 mmHg 83%
    04:00 +27°C° 0.4 mm 2 mps 757 mmHg 85%
    05:00 +27°C° 0.1 mm 2 mps 757 mmHg 85%
    06:00 +27°C° 0.1 mm 2 mps 758 mmHg 84%
    07:00 +27°C° 0.1 mm 2 mps 758 mmHg 84%
    08:00 +29°C° 0 mm 3 mps 759 mmHg 77%
    09:00 +30°C° 0 mm 3 mps 759 mmHg 71%
    10:00 +32°C° 0 mm 4 mps 759 mmHg 64%
    11:00 +33°C° 0 mm 4 mps 758 mmHg 61%
    12:00 +33°C° 0 mm 5 mps 757 mmHg 58%
    13:00 +34°C° 0 mm 5 mps 757 mmHg 55%
    14:00 +34°C° 0 mm 4 mps 756 mmHg 57%
    15:00 +34°C° 0 mm 3 mps 756 mmHg 59%
    16:00 +32°C° 0 mm 2 mps 756 mmHg 62%
    17:00 +32°C° 0 mm 2 mps 756 mmHg 64%
    18:00 +31°C° 0 mm 2 mps 757 mmHg 67%
    19:00 +30°C° 0 mm 1 mps 757 mmHg 70%
    20:00 +30°C° 0.2 mm 1 mps 758 mmHg 71%
    21:00 +29°C° 0.2 mm 2 mps 758 mmHg 72%
    22:00 +29°C° 0.2 mm 2 mps 758 mmHg 74%
    23:00 +28°C° 0.5 mm 2 mps 758 mmHg 75%

    30 October, Monday

    Time Temperature Precipitation Wind Pressure Humidity
    00:00 +28°C° 0.5 mm 3 mps 758 mmHg 75%
    01:00 +28°C° 0.5 mm 3 mps 757 mmHg 76%
    02:00 +27°C° 0 mm 3 mps 757 mmHg 77%
    03:00 +27°C° 0 mm 3 mps 757 mmHg 77%
    04:00 +26°C° 0 mm 3 mps 757 mmHg 78%
    05:00 +26°C° 0 mm 3 mps 758 mmHg 77%
    06:00 +26°C° 0 mm 4 mps 758 mmHg 77%
    07:00 +26°C° 0 mm 4 mps 759 mmHg 76%
    08:00 +28°C° 0 mm 4 mps 759 mmHg 70%
    09:00 +30°C° 0 mm 5 mps 759 mmHg 63%
    10:00 +32°C° 0 mm 6 mps 759 mmHg 56%
    11:00 +33°C° 0 mm 6 mps 758 mmHg 55%
    12:00 +34°C° 0 mm 5 mps 757 mmHg 53%
    13:00 +35°C° 0 mm 5 mps 756 mmHg 51%
    14:00 +35°C° 0 mm 5 mps 756 mmHg 52%
    15:00 +35°C° 0 mm 5 mps 756 mmHg 54%
    16:00 +35°C° 0 mm 5 mps 755 mmHg 55%
    17:00 +33°C° 0 mm 4 mps 755 mmHg 60%
    18:00 +32°C° 0 mm 4 mps 756 mmHg 65%
    19:00 +30°C° 0 mm 3 mps 756 mmHg 69%
    20:00 +29°C° 0 mm 3 mps 757 mmHg 70%
    21:00 +29°C° 0 mm 4 mps 757 mmHg 71%
    22:00 +29°C° 0 mm 4 mps 757 mmHg 72%
    23:00 +28°C° 0 mm 4 mps 757 mmHg 73%
    Show more